Location: Couloutre
(47.4081°N, 3.2259°E)
Time: 15:21:46
(UTC+00:00)

Daily predictions for brighter satellites

Satellite Brightness Start Highest point End
(mag) Time Altitude Azimuth Time Altitude Azimuth Time Altitude Azimuth
STARLINK-1060 3.7 17:49:43 10° WSW 17:53:51 80° NNW 17:58:01 10° ENE
STARLINK-63 4.5 17:50:16 10° W 17:54:06 41° N 17:57:56 10° ENE
Ariane Rocket 4.1 17:50:06 10° ESE 17:54:09 24° ENE 17:58:12 10° N
STARLINK-28 4.4 17:52:22 10° WNW 17:55:18 29° N 17:58:13 10° ENE
STARLINK-35 4.5 17:51:49 10° W 17:55:39 41° N 17:59:29 10° ENE
STARLINK-1058 4.5 17:51:57 10° SSW 17:55:42 34° SE 17:59:28 10° ENE
NOSS 2-3 (C) 3.7 17:51:37 10° SW 17:55:58 81° SE 18:01:08 10° NE
STARLINK-42 4.4 17:53:12 10° WNW 17:56:05 29° N 17:58:59 10° ENE
USA 116 4.5 17:53:07 10° NNE 17:57:07 40° E 18:01:34 10° S
STARLINK-51 4.5 17:53:29 10° W 17:57:19 40° N 18:01:09 10° ENE
STARLINK-1029 4.0 17:55:08 10° W 17:58:07 37° NNW 18:01:07 10° NE
STARLINK-1030 3.8 17:54:43 10° WSW 17:58:51 76° NNW 18:03:01 10° ENE
STARLINK-1007 4.2 17:55:44 10° W 17:58:52 35° NNW 18:02:00 10° ENE
STARLINK-30 4.5 17:55:10 10° W 17:59:00 40° N 18:02:49 10° ENE
Cosmos 1943 Rocket 2.7 17:54:08 10° SW 17:59:39 62° WNW 18:05:10 10° NNE
Cosmos 1725 Rocket 4.4 17:53:52 10° SSW 18:00:02 71° W 18:06:17 10° N
CSL-04 Debris 4.3 17:55:06 10° SSE 18:00:27 59° ENE 18:05:51 10° N
STARLINK-1043 4.4 17:56:50 10° SSW 18:00:39 37° SE 18:04:28 10° ENE
STARLINK-72 4.5 17:56:51 10° W 18:00:40 40° N 18:04:30 10° ENE
Cosmos 1666 Rocket 4.2 17:56:17 10° SSW 18:00:44 63° WNW 18:05:11 10° N
Cosmos 2297 Rocket 3.8 17:57:18 10° N 18:00:51 17° NE 18:04:24 10° ENE
Cosmos 1933 Rocket 3.9 17:57:07 10° SSE 18:01:18 45° E 18:05:29 10° NNE
SKYMED 2 3.5 17:57:54 10° NNE 18:02:17 81° ESE 18:06:37 10° S
STARLINK-1020 3.8 17:59:42 10° WSW 18:03:50 72° NNW 18:07:59 10° ENE
STARLINK-1065 4.3 18:01:33 10° SSW 18:05:25 39° SE 18:09:18 10° ENE
Cosmos 1340 2.6 18:04:17 10° S 18:08:02 78° E 18:11:49 10° NNE
STARLINK-1010 4.3 18:05:11 10° WNW 18:08:12 32° N 18:11:12 10° ENE
STARLINK-1052 3.9 18:04:42 10° WSW 18:08:49 68° NNW 18:12:58 10° ENE
NOAA 11 4.2 18:03:31 10° SSE 18:08:56 75° ENE 18:14:22 10° N
Cosmos 1346 Rocket 2.8 18:05:08 10° S 18:09:03 62° E 18:12:57 10° NNE
STARLINK-1063 4.1 18:06:37 10° SSW 18:10:32 43° SE 18:14:25 10° ENE
STARLINK-1047 3.9 18:07:00 10° WSW 18:11:10 66° NNW 18:15:19 10° ENE
Cosmos 1937 Rocket 4.1 18:07:08 10° N 18:12:00 36° ENE 18:16:46 10° SE
Cosmos 1464 Rocket 4.4 18:06:18 10° SSE 18:12:09 40° E 18:18:02 10° NNE
STARLINK-1064 4.0 18:11:32 10° SW 18:15:29 46° SE 18:19:12 12° ENE
ADEOS Rocket 3.7 18:08:27 10° NNE 18:16:06 55° E 18:23:28 10° S
STARLINK-1033 4.0 18:14:41 10° WSW 18:18:47 62° NNW 18:22:50 10° ENE
Cosmos 2227 Rocket 3.7 18:16:13 10° N 18:20:13 19° NE 18:23:25 13° E
STARLINK-1041 3.9 18:16:27 10° SW 18:20:27 50° SE 18:23:59 13° ENE
Meteor 1-20 Rocket 4.3 18:15:19 10° S 18:20:38 54° E 18:26:05 10° NNE
NOSS 3-1 (C) 4.4 18:17:04 10° WSW 18:22:30 44° NW 18:28:52 10° NE
Cosmos 1656 Rocket 3.6 18:18:34 10° SSW 18:24:05 82° ESE 18:29:45 10° NNE
STARLINK-1038 3.8 18:21:21 10° SW 18:25:23 54° SE 18:28:45 14° ENE
STARLINK-1024 4.1 18:24:43 10° W 18:28:48 56° NNW 18:32:25 13° ENE
STARLINK-1046 3.7 18:26:18 10° SW 18:30:22 58° SE 18:33:33 16° ENE
STARLINK 1040 4.3 18:28:34 10° WNW 18:30:58 24° N 18:32:39 15° NE
H-2A R/B 2.8 18:26:14 10° SE 18:31:06 36° ENE 18:36:02 10° N
STARLINK-22 4.4 18:31:18 10° WNW 18:34:15 29° N 18:36:16 16° NE
Cosmos 2034 Rocket 4.3 18:28:58 10° SSE 18:34:40 42° E 18:40:24 10° NNE
STARLINK-1039 3.7 18:31:17 10° SW 18:35:22 63° SE 18:38:21 18° ENE
STARLINK-41 4.3 18:32:48 10° WNW 18:35:46 30° N 18:37:41 17° NE
STARLINK-1016 4.4 18:33:28 10° WNW 18:36:32 31° N 18:38:43 16° NE
Cosmos 220 Rocket 4.3 18:33:22 10° S 18:37:26 41° ESE 18:41:28 10° NE
STARLINK-1008 4.4 18:35:08 10° WNW 18:38:13 31° N 18:40:20 16° NE
Meteor 1-18 Rocket 4.3 18:32:36 10° N 18:38:31 69° ENE 18:44:17 10° SSE
STARLINK-1032 4.2 18:34:45 10° W 18:38:48 51° NNW 18:41:59 16° NE
COSMOS 2487 3.1 18:35:59 10° NNW 18:39:24 56° WSW 18:42:46 10° S
STARLINK-75 4.3 18:37:10 10° WNW 18:40:14 31° N 18:41:58 19° NE
STARLINK-1045 3.6 18:36:13 10° SW 18:40:19 67° SSE 18:43:07 20° ENE
STARLINK-58 4.4 18:38:04 10° WNW 18:41:18 32° N 18:43:17 18° NE
STARLINK-1025 4.4 18:39:19 10° WNW 18:42:24 31° N 18:44:21 18° NE
STARLINK-62 4.4 18:39:47 10° WNW 18:43:02 32° N 18:44:55 19° NE
STARLINK-1011 4.3 18:39:45 10° W 18:43:47 49° NNW 18:46:45 17° NE
STARLINK-43 3.3 18:40:18 10° WNW 18:44:01 82° SSW 18:46:22 21° SE
STARLINK-1017 4.4 18:41:25 10° WNW 18:44:31 31° N 18:46:21 18° NE
STARLINK-34 4.4 18:41:25 10° WNW 18:44:39 32° N 18:46:29 20° NE
STARLINK-1050 3.6 18:41:13 10° SW 18:45:20 74° SSE 18:47:58 22° ENE
STARLINK-1035 4.4 18:41:25 10° W 18:45:33 48° NNW 18:48:33 17° NE
Timation 2 Rocket 4.2 18:38:45 10° NNW 18:45:41 80° ENE 18:52:34 10° SSE
STARLINK-1031 4.4 18:41:49 10° W 18:45:47 46° NNW 18:48:37 18° NE
Lacrosse 5 rocket 2.6 18:41:42 10° NW 18:45:49 32° NNE 18:48:11 20° ENE
HJ-1C 3.2 18:42:43 10° SSE 18:46:00 76° ENE 18:49:19 10° N
Okean 1 3.2 18:42:39 10° N 18:46:41 73° E 18:50:38 10° SSE
Cosmos 468 Rocket 4.0 18:41:53 10° S 18:47:08 69° ESE 18:52:26 10° NNE
Okean 1-7 2.9 18:43:23 10° N 18:47:44 84° E 18:52:05 10° S
STARLINK-1036 4.3 18:44:46 10° W 18:48:47 48° NNW 18:51:32 19° NE
Cosmos 2219 3.8 18:43:43 10° NNW 18:49:04 38° NE 18:52:15 21° ESE
COSMO-SKYMED 1 4.4 18:46:18 10° N 18:50:14 34° WNW 18:54:09 10° SW
STARLINK-1055 3.5 18:46:10 10° SW 18:50:18 79° SSE 18:52:44 24° ENE
STARLINK-1048 4.4 18:47:48 10° WNW 18:50:54 30° N 18:52:29 21° NE
Cosmos 192 4.2 18:46:43 10° SSW 18:51:37 76° ESE 18:56:31 10° NNE
Lacrosse 5 2.0 18:47:33 10° SSW 18:52:29 52° SE 18:55:38 21° ENE
Cosmos 405 3.2 18:49:00 10° NNW 18:52:33 72° W 18:56:05 10° S
Cosmos 1092 Rocket 4.4 18:46:54 10° N 18:52:52 41° ENE 18:58:47 10° SE
STARLINK-1049 4.4 18:49:58 10° WNW 18:53:03 30° N 18:54:32 22° NE
MOS 1 4.3 18:48:12 10° SE 18:53:42 57° ENE 18:59:14 10° N
STARLINK-1044 4.4 18:49:47 10° W 18:53:47 46° NNW 18:56:20 20° NE
STARLINK-1051 4.4 18:52:08 10° WNW 18:55:14 30° N 18:56:37 22° NE
STARLINK-1022 3.5 18:51:08 10° WSW 18:55:16 84° SSE 18:57:32 26° ENE
STARLINK-1028 4.4 18:53:48 10° WNW 18:56:55 31° N 18:58:14 23° NE
Meteor 2-4 Rocket 4.0 18:51:09 10° N 18:56:57 52° ENE 19:02:43 10° SSE
Meteor 1-14 Rocket 4.1 18:52:14 10° S 18:57:45 72° E 19:03:19 10° NNE
STARLINK-1021 4.4 18:56:01 10° WNW 18:59:07 31° N 19:00:21 24° NE
Gbstr 26 Del rocket 2.9 18:55:24 10° WSW 18:59:28 88° SSE 19:02:07 26° ENE
USA 234 4.2 18:55:21 15° ENE 19:00:09 38° N 19:06:05 10° WNW
STARLINK-1042 3.5 18:56:07 10° WSW 19:00:16 89° S 19:02:20 29° ENE
Cosmos 1814 Rocket 4.4 18:56:25 10° S 19:01:06 38° ESE 19:05:50 10° NE
STARLINK-1019 4.4 18:58:14 10° WNW 19:01:21 31° N 19:02:28 25° NE
Cosmos 2369 Rocket 4.0 18:56:33 10° WSW 19:01:33 31° NW 19:06:36 10° NNE
STARLINK-1012 4.4 19:00:28 10° WNW 19:03:35 31° N 19:04:37 26° NE
STARLINK-1037 4.5 18:59:44 10° W 19:03:42 43° NNW 19:05:48 24° NE
Cosmos 1602 3.7 19:00:32 10° S 19:04:24 86° WNW 19:08:17 10° N
Cosmos 44 Rocket 3.5 18:59:45 10° NW 19:04:28 67° WSW 19:08:48 12° SSE
USA 186 2.4 19:05:54 33° NNE 19:05:54 33° NNE 19:07:47 10° N
Cosmos 1703 Rocket 4.3 19:00:37 10° NNW 19:05:00 56° W 19:09:23 10° S
Cosmos 1898 Rocket 3.9 18:59:56 10° NNW 19:05:04 66° WSW 19:10:12 10° S
STARLINK-1056 3.6 19:01:06 10° WSW 19:05:15 86° NNW 19:07:07 32° ENE
SJ 16-02 1.8 19:01:53 10° NNW 19:06:15 62° WSW 19:10:34 10° S
NOSS 3-2 (A) 4.2 18:59:09 10° NW 19:06:17 53° NE 19:10:56 26° ESE
STARLINK-48 3.6 19:02:43 10° WNW 19:06:34 58° NNE 19:07:38 41° ENE
Cosmos 841 Rocket 3.6 19:02:12 10° S 19:07:06 47° ESE 19:12:04 10° NNE
Cosmos 1763 Rocket 3.4 19:02:15 10° SSW 19:07:28 83° ESE 19:12:48 10° NNE
STARLINK-1026 4.4 19:04:55 10° WNW 19:08:03 31° N 19:08:53 27° NNE
STARLINK-1023 4.3 19:05:15 10° WNW 19:08:13 30° N 19:08:53 27° NNE
Meteor 1-19 Rocket 4.2 19:03:29 10° NNW 19:09:17 86° W 19:14:54 10° S
NOSS 3-2 (C) 4.5 19:03:06 10° NW 19:09:59 44° NE 19:13:51 27° E
ARGOS 3.1 19:04:42 10° SSE 19:10:02 62° ENE 19:15:25 10° N
Cosmos 2298 Rocket 4.3 19:04:57 10° NNW 19:10:07 46° ENE 19:12:03 32° ESE
STARLINK-1054 3.6 19:06:03 10° WSW 19:10:12 81° NNW 19:11:52 35° ENE
STARLINK-1013 4.4 19:07:10 10° WNW 19:10:18 31° N 19:11:03 28° NNE
Resurs 01 Rocket 3.1 19:11:23 21° NE 19:11:23 21° NE 19:13:56 10° NNE
STARLINK-26 3.3 19:08:24 10° WNW 19:11:50 56° NNE 19:12:15 51° NE
STARLINK-61 4.2 19:08:46 10° WNW 19:12:30 41° NNE 19:13:23 35° NE
STARLINK-1009 4.3 19:09:25 10° WNW 19:12:33 31° N 19:13:12 29° NNE
STARLINK-69 4.5 19:10:11 10° WNW 19:13:58 37° N 19:15:02 31° NE
Cosmos 1869 Rocket 3.5 19:09:41 10° S 19:14:04 83° W 19:18:28 10° N
Cosmos 2208 Rocket 4.0 19:08:53 10° S 19:14:11 60° ESE 19:19:28 10° NNE
ARGOS Delta rocket 3.7 19:13:10 34° SE 19:14:45 52° ENE 19:19:09 10° N
STARLINK-1015 4.3 19:11:40 10° WNW 19:14:50 31° N 19:15:23 30° NNE
Meteor 1-11 Rocket 4.2 19:10:06 10° SSE 19:15:05 35° E 19:20:03 10° NNE
STARLINK-1062 3.6 19:11:02 10° WSW 19:15:11 77° NNW 19:16:39 39° NE
STARLINK-21 4.5 19:11:40 10° WNW 19:15:26 37° N 19:16:28 31° NE
SPOT 3 Rocket 3.7 19:13:10 30° SE 19:15:26 49° ENE 19:20:29 10° N
STARLINK-45 4.4 19:13:33 10° WNW 19:17:20 38° N 19:18:15 33° NE
STARLINK-70 4.4 19:15:06 10° WNW 19:18:53 38° N 19:19:45 33° NE
CENTAUR R/B 3.6 19:11:36 10° NW 19:18:55 43° NE 19:22:39 29° E
STARLINK-1014 4.4 19:16:48 10° WNW 19:20:01 32° N 19:20:28 30° NNE
STARLINK-1053 3.7 19:16:02 10° WSW 19:20:11 73° NNW 19:21:26 43° NE
STARLINK-76 4.4 19:16:38 10° WNW 19:20:26 38° N 19:21:13 34° NE
Cosmos 389 Rocket 4.3 19:18:20 10° N 19:19:48 20° NNE 19:19:48 20° NNE
STARLINK-23 4.4 19:18:18 10° WNW 19:22:05 38° N 19:22:49 35° NNE
STARLINK-80 3.3 19:18:52 10° WNW 19:22:43 87° SSW 19:23:11 67° SE
STARLINK-32 4.4 19:19:56 10° WNW 19:23:44 38° N 19:24:23 35° NNE
CZ-2C R/B 3.2 19:19:18 10° SSE 19:25:07 80° ENE 19:30:46 10° NNW
STARLINK-1061 3.8 19:21:02 10° WSW 19:25:09 69° NNW 19:26:12 47° NE
STARLINK-40 4.4 19:21:36 10° WNW 19:25:25 38° N 19:25:59 36° NNE
Cosmos 2150 Rocket 4.1 19:21:33 10° NNW 19:26:55 58° ENE 19:28:22 43° ESE
STARLINK-44 4.4 19:23:16 10° WNW 19:27:04 38° N 19:27:35 37° NNE
Meteor 2-9 4.5 19:22:38 10° S 19:27:57 68° E 19:33:18 10° NNE
FREGAT/IRIS 3.7 19:29:02 38° NW 19:29:02 38° NW 19:30:59 10° NNW
Cosmos 1570 Rocket 3.9 19:23:15 10° SSW 19:28:30 89° WNW 19:33:49 10° NNE
STARLINK-37 4.3 19:25:03 10° WNW 19:28:52 39° N 19:29:16 38° NNE
STARLINK-64 4.1 19:25:31 10° WNW 19:28:51 40° N 19:28:51 40° N
STARLINK-33 4.0 19:26:00 10° NW 19:28:41 39° N 19:28:41 39° N
SJ-6B 2.5 19:29:20 67° SSE 19:29:48 87° E 19:33:39 10° NNW
STARLINK-1067 3.8 19:26:02 10° WSW 19:30:09 66° NNW 19:31:00 50° NNE
STARLINK-36 4.3 19:26:34 10° WNW 19:30:23 39° N 19:30:44 38° NNE
STARLINK-55 4.0 19:27:22 10° NW 19:30:00 40° NNW 19:30:00 40° NNW
STARLINK-66 4.0 19:28:16 10° NW 19:30:52 39° NNW 19:30:52 39° NNW
Cosmos 1125 Rocket 4.1 19:27:02 10° N 19:32:02 39° ENE 19:32:02 39° ENE
STARLINK-28 4.0 19:28:57 10° WNW 19:31:31 40° NNW 19:31:31 40° NNW
STARLINK-68 4.3 19:28:27 10° WNW 19:32:17 40° N 19:32:31 40° NNE
Okean 3 3.3 19:28:06 10° N 19:32:21 88° E 19:33:28 48° S
Ariane Rocket 3.8 19:27:48 10° S 19:32:47 53° W 19:37:48 10° NNW
STARLINK-42 4.2 19:29:42 10° NW 19:32:09 36° NNW 19:32:09 36° NNW
Cosmos 540 Rocket 3.3 19:28:32 10° S 19:33:37 70° ESE 19:38:45 10° NNE
ATLAS 3B R/B 3.6 19:27:49 10° NNW 19:33:47 32° NNE 19:35:31 29° ENE
STARLINK-63 4.3 19:30:01 10° WNW 19:33:50 40° N 19:34:01 40° NNE
STARLINK-1058 3.9 19:31:01 10° WSW 19:35:07 62° NNW 19:35:46 54° NNE
STARLINK-35 4.3 19:31:33 10° WNW 19:35:23 40° N 19:35:31 40° NNE
STARLINK-1007 4.5 19:33:01 10° WNW 19:35:37 31° N 19:35:37 31° N
STARLINK-51 4.3 19:33:13 10° WNW 19:37:03 40° N 19:37:06 40° NNE
Cosmos 1627 Rocket 4.4 19:32:21 10° N 19:38:31 66° ENE 19:41:00 37° SSE
STARLINK-30 4.3 19:34:53 10° WNW 19:38:41 40° N 19:38:41 40° N
STARLINK-1043 3.9 19:36:01 10° WSW 19:40:07 60° NNW 19:40:33 56° N
STARLINK-72 4.3 19:36:33 10° WNW 19:40:18 41° N 19:40:18 41° N
Meteor 1-13 Rocket 4.1 19:36:05 10° N 19:41:59 81° ENE 19:44:37 34° SSE
STARLINK-50 4.4 19:38:12 10° WNW 19:41:53 41° N 19:41:53 41° N
SL-08 RB Rocket 3.5 19:42:32 64° SSE 19:43:13 88° ENE 19:47:43 10° NNW
STARLINK-59 4.4 19:39:58 10° WNW 19:43:34 41° N 19:43:34 41° N
APEX 4.1 19:39:24 10° SSW 19:44:29 90° E 19:50:53 10° NNE
STARLINK-1065 4.0 19:40:51 10° W 19:44:55 57° NNW 19:45:09 56° N
STARLINK-56 4.4 19:41:32 10° WNW 19:45:04 41° N 19:45:04 41° N
Cosmos 2297 Rocket 2.1 19:40:20 10° NNW 19:46:01 69° ENE 19:46:50 60° ESE
STARLINK-73 4.4 19:43:11 10° WNW 19:46:39 41° N 19:46:39 41° N
CZ-2C R/B 3.6 19:42:47 10° NNE 19:47:29 80° ESE 19:52:13 10° SSW
STARLINK-38 4.5 19:44:52 10° WNW 19:48:16 41° N 19:48:16 41° N
STARLINK-1063 4.1 19:46:00 10° W 19:50:05 54° NNW 19:50:05 54° NNW
STARLINK-65 4.5 19:46:30 10° WNW 19:49:50 40° N 19:49:50 40° N
Genesis I 3.9 19:48:33 10° NW 19:52:02 50° WSW 19:52:02 50° WSW
STARLINK-1064 4.2 19:51:01 10° W 19:54:52 52° NNW 19:54:52 52° NNW
Cosmos 2026 Rocket 3.8 19:50:18 10° N 19:56:31 83° E 19:58:22 48° SSE
ATLAS 2AS CENTAUR R/B 4.1 19:50:13 10° S 19:53:45 26° SSE 19:53:45 26° SSE
Meteor 1-5 Rocket 4.2 19:53:25 10° SSW 19:58:55 82° WNW 20:04:38 10° N
STARLINK-1041 4.4 19:56:02 10° W 19:59:39 48° NW 19:59:39 48° NW
Cosmos 2227 Rocket 2.0 19:59:27 10° NNW 20:05:09 85° ENE 20:05:17 83° E
Cosmos 1674 Rocket 4.5 20:02:11 10° N 20:05:10 42° N 20:05:10 42° N
USA 238 DEB 3.8 20:00:12 10° NW 20:07:25 83° SW 20:09:21 54° SSE
USA 238 3.8 20:00:18 10° NW 20:07:30 83° SW 20:09:24 54° SSE
Meteor 1-23 Rocket 4.2 20:02:00 10° N 20:07:09 68° NE 20:07:09 68° NE
H-2A R/B 3.5 20:05:28 10° SSW 20:10:28 38° W 20:15:33 10° NNW
Cosmos 2082 4.0 20:05:38 10° NNW 20:10:31 55° NNE 20:10:31 55° NNE
Lacrosse 5 rocket 2.8 20:20:51 10° NW 20:23:51 40° NW 20:23:51 40° NW
Cosmos 1655 Rocket 4.4 20:22:22 10° N 20:27:24 54° NNE 20:27:24 54° NNE
Cosmos 2142 Rocket 4.5 20:30:22 76° NNW 20:30:22 76° NNW 20:36:11 10° N
Cosmos 2219 4.2 20:27:55 10° NW 20:33:17 41° WSW 20:34:13 39° SW
Lacrosse 5 2.9 20:30:41 10° W 20:34:52 43° NW 20:34:52 43° NW
CZ-2C R/B 4.4 20:36:34 10° N 20:38:39 24° N 20:38:39 24° N
USA 234 3.6 20:42:41 53° NNE 20:42:41 53° NNE 20:48:46 10° NW
Cosmos 2263 Rocket 4.0 20:38:57 10° NNW 20:41:27 22° N 20:41:27 22° N
Resurs 01 Rocket 3.7 20:48:56 24° NW 20:48:56 24° NW 20:50:56 10° NNW
NOSS 3-2 (C) 4.2 20:53:58 10° NW 21:01:19 67° WSW 21:01:19 67° WSW
CENTAUR R/B 3.2 21:02:17 10° NW 21:09:51 71° WSW 21:09:51 71° WSW
ATLAS 3B R/B 3.6 21:18:24 10° NW 21:22:47 44° NW 21:22:47 44° NW
Cosmos 2297 Rocket 4.3 21:25:25 10° NW 21:28:41 20° W 21:28:41 20° W
